• In Latvia
  • List of Countries
  • For 7 days
  • Water Temperature
  • Satellite Maps
  • Weather Map
  • Weather Widgets
  • user-avatar
    Login

    Hourly Weather Jewłach

    Today, 27 May, Saturday

    Time Temperature Precipitation Wind Pressure Humidity
    00:00 +18°C° 0 mm 2 mps 760 mmHg 80%
    01:00 +18°C° 0.3 mm 1 mps 760 mmHg 83%
    02:00 +18°C° 0.3 mm 1 mps 759 mmHg 85%
    03:00 +16°C° 0 mm 1 mps 759 mmHg 88%
    04:00 +16°C° 0 mm 0 mps 759 mmHg 84%
    05:00 +17°C° 0 mm 0 mps 759 mmHg 81%
    06:00 +18°C° 0 mm 0 mps 759 mmHg 77%
    07:00 +19°C° 0 mm 0 mps 759 mmHg 70%
    08:00 +23°C° 0 mm 1 mps 758 mmHg 62%
    09:00 +25°C° 0 mm 1 mps 758 mmHg 54%
    10:00 +26°C° 0 mm 1 mps 758 mmHg 48%
    11:00 +28°C° 0 mm 1 mps 757 mmHg 43%
    12:00 +29°C° 0 mm 1 mps 757 mmHg 37%
    13:00 +30°C° 0 mm 1 mps 756 mmHg 35%
    14:00 +31°C° 0 mm 1 mps 756 mmHg 33%
    15:00 +31°C° 0 mm 1 mps 755 mmHg 32%
    16:00 +31°C° 0 mm 1 mps 755 mmHg 35%
    17:00 +30°C° 0 mm 1 mps 755 mmHg 39%
    18:00 +29°C° 0 mm 1 mps 755 mmHg 43%
    19:00 +27°C° 0.3 mm 1 mps 756 mmHg 48%
    20:00 +24°C° 0.3 mm 1 mps 756 mmHg 53%
    21:00 +21°C° 0.3 mm 2 mps 757 mmHg 59%
    22:00 +21°C° 0.3 mm 1 mps 757 mmHg 63%
    23:00 +21°C° 0.3 mm 1 mps 757 mmHg 66%

    Tomorrow, 28 May, Sunday

    Time Temperature Precipitation Wind Pressure Humidity
    00:00 +20°C° 0.3 mm 1 mps 757 mmHg 70%
    01:00 +20°C° 0 mm 1 mps 757 mmHg 72%
    02:00 +19°C° 0 mm 1 mps 758 mmHg 74%
    03:00 +19°C° 0 mm 1 mps 758 mmHg 76%
    04:00 +20°C° 0 mm 1 mps 758 mmHg 72%
    05:00 +21°C° 0 mm 1 mps 758 mmHg 68%
    06:00 +22°C° 0 mm 1 mps 758 mmHg 64%
    07:00 +24°C° 0 mm 2 mps 758 mmHg 54%
    08:00 +26°C° 0 mm 2 mps 758 mmHg 45%
    09:00 +28°C° 0 mm 3 mps 758 mmHg 35%
    10:00 +29°C° 0 mm 3 mps 758 mmHg 32%
    11:00 +30°C° 0 mm 3 mps 757 mmHg 29%
    12:00 +31°C° 0 mm 3 mps 757 mmHg 25%
    13:00 +33°C° 0 mm 3 mps 757 mmHg 25%
    14:00 +32°C° 0 mm 2 mps 756 mmHg 24%
    15:00 +34°C° 0 mm 2 mps 756 mmHg 23%
    16:00 +32°C° 0 mm 2 mps 756 mmHg 28%
    17:00 +31°C° 0 mm 2 mps 757 mmHg 32%
    18:00 +30°C° 0 mm 1 mps 757 mmHg 36%
    19:00 +27°C° 0.2 mm 2 mps 758 mmHg 43%
    20:00 +25°C° 0.2 mm 2 mps 759 mmHg 50%
    21:00 +21°C° 0.2 mm 2 mps 760 mmHg 57%
    22:00 +20°C° 0 mm 2 mps 760 mmHg 61%
    23:00 +20°C° 0 mm 1 mps 760 mmHg 65%

    Day after tomorrow, 29 May, Monday

    Time Temperature Precipitation Wind Pressure Humidity
    00:00 +20°C° 0 mm 1 mps 761 mmHg 69%
    01:00 +19°C° 0 mm 1 mps 761 mmHg 70%
    02:00 +19°C° 0 mm 1 mps 761 mmHg 71%
    03:00 +19°C° 0 mm 1 mps 762 mmHg 72%
    04:00 +20°C° 0 mm 1 mps 762 mmHg 68%
    05:00 +21°C° 0 mm 1 mps 762 mmHg 64%
    06:00 +22°C° 0 mm 1 mps 762 mmHg 60%
    07:00 +24°C° 0 mm 1 mps 763 mmHg 54%
    08:00 +25°C° 0 mm 1 mps 763 mmHg 47%
    09:00 +27°C° 0 mm 1 mps 763 mmHg 41%
    10:00 +28°C° 0 mm 2 mps 763 mmHg 38%
    11:00 +29°C° 0 mm 2 mps 763 mmHg 36%
    12:00 +31°C° 0 mm 3 mps 762 mmHg 34%
    13:00 +31°C° 0 mm 3 mps 762 mmHg 33%
    14:00 +32°C° 0 mm 4 mps 762 mmHg 33%
    15:00 +33°C° 0 mm 5 mps 762 mmHg 33%
    16:00 +32°C° 0 mm 5 mps 762 mmHg 36%
    17:00 +30°C° 0 mm 6 mps 762 mmHg 39%
    18:00 +29°C° 0 mm 6 mps 762 mmHg 42%
    19:00 +27°C° 0 mm 6 mps 763 mmHg 48%
    20:00 +24°C° 0 mm 6 mps 764 mmHg 55%
    21:00 +22°C° 0 mm 6 mps 765 mmHg 61%
    22:00 +21°C° 0 mm 5 mps 765 mmHg 65%
    23:00 +20°C° 0 mm 4 mps 765 mmHg 69%

    30 May, Tuesday

    Time Temperature Precipitation Wind Pressure Humidity
    00:00 +19°C° 0 mm 3 mps 764 mmHg 73%
    01:00 +18°C° 0 mm 3 mps 764 mmHg 75%
    02:00 +18°C° 0 mm 2 mps 764 mmHg 78%
    03:00 +17°C° 0 mm 2 mps 764 mmHg 80%
    04:00 +19°C° 0 mm 1 mps 764 mmHg 77%
    05:00 +20°C° 0 mm 1 mps 763 mmHg 74%
    06:00 +20°C° 0 mm 1 mps 763 mmHg 71%
    07:00 +22°C° 0 mm 1 mps 763 mmHg 65%
    08:00 +23°C° 0 mm 1 mps 762 mmHg 58%
    09:00 +25°C° 0 mm 2 mps 762 mmHg 51%
    10:00 +26°C° 0 mm 1 mps 761 mmHg 47%
    11:00 +28°C° 0 mm 1 mps 761 mmHg 42%
    12:00 +29°C° 0 mm 1 mps 760 mmHg 38%
    13:00 +30°C° 0 mm 1 mps 759 mmHg 36%
    14:00 +31°C° 0 mm 1 mps 759 mmHg 34%
    15:00 +32°C° 0 mm 1 mps 758 mmHg 32%
    16:00 +31°C° 0 mm 1 mps 758 mmHg 34%
    17:00 +31°C° 0 mm 1 mps 758 mmHg 35%
    18:00 +31°C° 0 mm 1 mps 758 mmHg 37%
    19:00 +28°C° 0 mm 1 mps 759 mmHg 43%
    20:00 +26°C° 0 mm 1 mps 759 mmHg 49%
    21:00 +23°C° 0 mm 1 mps 760 mmHg 55%
    22:00 +23°C° 0 mm 1 mps 760 mmHg 56%
    23:00 +22°C° 0 mm 1 mps 760 mmHg 56%

    31 May, Wednesday

    Time Temperature Precipitation Wind Pressure Humidity
    00:00 +22°C° 0 mm 1 mps 759 mmHg 57%
    01:00 +21°C° 0 mm 1 mps 759 mmHg 58%
    02:00 +20°C° 0 mm 1 mps 759 mmHg 60%
    03:00 +20°C° 0 mm 1 mps 759 mmHg 62%
    04:00 +21°C° 0 mm 1 mps 759 mmHg 58%
    05:00 +23°C° 0 mm 1 mps 759 mmHg 55%
    06:00 +24°C° 0 mm 1 mps 760 mmHg 52%
    07:00 +26°C° 0 mm 1 mps 759 mmHg 44%
    08:00 +28°C° 0 mm 1 mps 759 mmHg 37%
    09:00 +30°C° 0 mm 1 mps 759 mmHg 29%
    10:00 +32°C° 0 mm 1 mps 758 mmHg 27%
    11:00 +34°C° 0 mm 2 mps 758 mmHg 25%
    12:00 +35°C° 0 mm 2 mps 757 mmHg 23%
    13:00 +35°C° 0 mm 2 mps 757 mmHg 22%
    14:00 +36°C° 0 mm 2 mps 757 mmHg 22%
    15:00 +36°C° 0 mm 3 mps 756 mmHg 22%
    16:00 +35°C° 0 mm 3 mps 756 mmHg 25%
    17:00 +34°C° 0 mm 4 mps 756 mmHg 28%
    18:00 +33°C° 0 mm 4 mps 756 mmHg 31%
    19:00 +30°C° 0 mm 4 mps 757 mmHg 35%
    20:00 +28°C° 0 mm 4 mps 757 mmHg 39%
    21:00 +25°C° 0 mm 4 mps 757 mmHg 43%
    22:00 +24°C° 0.4 mm 3 mps 757 mmHg 50%
    23:00 +22°C° 0.4 mm 3 mps 757 mmHg 56%

    1 June, Thursday

    Time Temperature Precipitation Wind Pressure Humidity
    00:00 +21°C° 0.4 mm 2 mps 757 mmHg 63%
    01:00 +20°C° 0.5 mm 2 mps 757 mmHg 65%
    02:00 +21°C° 0.5 mm 1 mps 756 mmHg 68%
    03:00 +20°C° 0.5 mm 1 mps 756 mmHg 70%
    04:00 +21°C° 0.1 mm 1 mps 756 mmHg 68%
    05:00 +21°C° 0.1 mm 2 mps 756 mmHg 67%
    06:00 +21°C° 0.1 mm 2 mps 756 mmHg 65%
    07:00 +24°C° 0.2 mm 2 mps 756 mmHg 58%
    08:00 +26°C° 0.2 mm 2 mps 756 mmHg 52%
    09:00 +27°C° 0.2 mm 2 mps 755 mmHg 45%
    10:00 +28°C° 0.1 mm 2 mps 755 mmHg 41%
    11:00 +30°C° 0.1 mm 2 mps 754 mmHg 38%
    12:00 +31°C° 0.1 mm 2 mps 754 mmHg 34%
    13:00 +31°C° 0 mm 1 mps 753 mmHg 32%
    14:00 +32°C° 0 mm 1 mps 753 mmHg 31%
    15:00 +32°C° 0 mm 1 mps 752 mmHg 30%
    16:00 +32°C° 0 mm 1 mps 753 mmHg 32%
    17:00 +31°C° 0 mm 2 mps 753 mmHg 34%
    18:00 +31°C° 0 mm 2 mps 753 mmHg 35%
    19:00 +29°C° 0 mm 2 mps 754 mmHg 37%
    20:00 +27°C° 0 mm 2 mps 754 mmHg 38%
    21:00 +25°C° 0 mm 2 mps 754 mmHg 40%
    22:00 +24°C° 0 mm 2 mps 755 mmHg 42%
    23:00 +23°C° 0 mm 2 mps 755 mmHg 45%
    Show more